Regional Weather Roundup
Issued by NWS San Angelo, TX

Home | Current Version | Previous Version | Text Only | Print | Product List | Glossary On
Versions: 1 2 3 4 5 6 7 8 9 10 11 12 13 14 15 16 17 18 19 20 21 22 23 24 25 26 27 28 29 30 31 32 33 34 35 36 37 38 39 40 41 42 43 44 45 46 47 48 49 50
000
ASUS44 KSJT 211310
RWRSJT
WEST CENTRAL TEXAS REGIONAL WEATHER ROUNDUP
NATIONAL WEATHER SERVICE SAN ANGELO TX
800 AM CDT SUN SEP 21 2014

NOTE: "FAIR" INDICATES FEW OR NO CLOUDS BELOW 12,000 FEET WITH NO
SIGNIFICANT WEATHER AND/OR OBSTRUCTIONS TO VISIBILITY.

TXZ049-054-064>066-071>073-076>078-098-099-113-114-127-128-139-140-
154-155-168>170-211400
...LOCATIONS ACROSS WEST CENTRAL TEXAS...

CITY           SKY/WX    TMP DP  RH WIND       PRES   REMARKS
SAN ANGELO     CLOUDY    71  69  93 E5        30.11R
ABILENE        CLEAR     70  68  93 SE6       30.13R
DYESS AFB      CLEAR     69  61  76 E1        30.12R
JUNCTION       CLOUDY    72  69  90 CALM      30.11R
SWEETWATER     CLOUDY    70  70 100 CALM      30.17R
BROWNWOOD      MOCLDY    70  68  94 CALM      30.12R
COLEMAN        CLOUDY    71  69  95 CALM      30.12R FOG
SONORA         CLOUDY    72  70  94 CALM      30.15R
OZONA          CLOUDY    72  70  94 CALM      30.14R
BRADY          PTCLDY    70  70 100 E3        30.11R
$$

TEXAS PANHANDLE/OKLAHOMA PANHANDLE

CITY           SKY/WX    TMP DP  RH WIND       PRES   REMARKS
AMARILLO       MOCLDY    65  64  97 W5        30.23R FOG
BORGER         PTCLDY    67  64  90 W6        30.20R
CANADIAN       CLOUDY    69  68  96 CALM      30.16R
DALHART        CLEAR     64  60  87 NE9       30.28R
DUMAS          MOSUNNY   62  61  97 N6        30.24R FOG
GUYMON         NOT AVBL
HEREFORD       CLOUDY    66  65  99 CALM      30.26R FOG
PAMPA          MOSUNNY   65  63  94 NW6       30.21R FOG
PERRYTON       CLEAR     66  63  87 NE12G22   30.20R
$$

SOUTHERN PANHANDLE/SOUTH PLAINS/ROLLING PLAINS

CITY           SKY/WX    TMP DP  RH WIND       PRES   REMARKS
LUBBOCK        FOG       68  67  96 NE6       30.20R VSB 1/4
SNYDER         CLOUDY    70  69  98 NE3       30.16R
CHILDRESS      PTCLDY    72  69  90 NE3       30.15R
SEMINOLE       CLOUDY    67  66  97 CALM      30.18R
$$

PERMIAN BASIN

CITY           SKY/WX    TMP DP  RH WIND       PRES   REMARKS
MIDLAND        LGT RAIN  72  70  93 SE5       30.14R
ODESSA         LGT RAIN  72  69  90 MISG      30.14R
WINK           CLOUDY    73  70  90 E10       30.10R
$$

FAR WEST/SOUTHWEST MOUNTAINS/TRANS PECOS

CITY           SKY/WX    TMP DP  RH WIND       PRES   REMARKS
ALPINE         SUNNY     62  61  96 CALM      30.24R
DRYDEN           N/A     77  72  84 E9        30.07R
EL PASO        MOCLDY    70  64  81 NE7       30.13R
FORT STOCKTON  CLOUDY    72  68  87 SE7       30.12R
GUADALUPE PASS MOCLDY    63  62  97 NE16        N/A  FOG
MARFA          MOCLDY    57  55  94 N3        30.22R
PECOS          CLOUDY    71  68  91 E6        30.09R
$$

DALLAS/FORT WORTH METROPLEX

CITY           SKY/WX    TMP DP  RH WIND       PRES   REMARKS
DFW AIRPORT    PTCLDY    72  68  87 N5        30.08R
FTW MEACHAM    CLEAR     71  64  78 CALM      30.08R
DAL-EXECUTIVE  CLEAR     71  64  78 CALM      30.08R
GRAND PRAIRIE  CLEAR     72  63  73 MISG      30.09R
ADDISON        CLEAR     72  64  78 CALM      30.09R
MESQUITE       SUNNY     66  64  94 CALM      30.07R
LANCASTER      SUNNY     66  62  86 CALM      30.09R
$$

NORTH CENTRAL TEXAS

CITY           SKY/WX    TMP DP  RH WIND       PRES   REMARKS
SHRMAN/DENISON SUNNY     68  64  86 CALM      30.10R
GAINESVILLE    CLEAR     67  62  85 CALM      30.11R
BRIDGEPORT     SUNNY     64  64 100 CALM      30.11R
DENTON         CLEAR     65  62  90 NW3       30.09R
WAXAHACHIE     SUNNY     68  64  86 CALM      30.09R
GRANBURY       SUNNY     67  64  90 CALM      30.10R
$$

WESTERN NORTH TEXAS

CITY           SKY/WX    TMP DP  RH WIND       PRES   REMARKS
WICHITA FALLS  CLEAR     70  66  87 S3        30.09R
VERNON         SUNNY     71  68  90 CALM      30.11R
BRECKENRIDGE   SUNNY     71  67  90 CALM      30.11R
COMANCHE       PTCLDY    68  68 100 CALM      30.11R FOG
$$

CENTRAL AND SOUTH CENTRAL TEXAS

CITY           SKY/WX    TMP DP  RH WIND       PRES   REMARKS
AUSTIN/BERGSTM PTCLDY    72  71  97 NE3       30.06R
WACO           CLEAR     69  67  93 CALM      30.07R
HILLSBORO      SUNNY     70  65  83 CALM      30.08R
TEMPLE         CLEAR     70  64  83 N5        30.07R
KILLEEN-GRAY   MOCLDY    73  70  88 CALM      30.08R
FORT HOOD      MOCLDY    75  71  87 CALM      30.08R
GEORGETOWN     MOCLDY    72  70  94 CALM      30.08R
LAGO VISTA     FAIR      72  70  93 NE3       30.10R
SAN MARCOS     PTCLDY    73  68  83 N6        30.06R HAZE
NEW BRAUNFELS  CLEAR     74  72  93 NE7       30.04R
RANDOLPH AFB   CLEAR     74  72  93 NE5       30.05R
SAN ANTONIO    PTCLDY    75  72  90 NE5       30.05R
STINSON        CLEAR     76  72  87 NE6       30.02R
PLEASANTON     NOT AVBL
LA GRANGE      CLEAR     74  73  96 CALM      30.03R
GIDDINGS       SUNNY     72  70  94 CALM      30.09R
$$

EAST TEXAS

CITY           SKY/WX    TMP DP  RH WIND       PRES   REMARKS
PARIS          CLEAR     70  63  78 N3        30.08R
CLARKSVILLE    NOT AVBL
TYLER          CLEAR     71  66  84 CALM      30.07R
LONGVIEW       SUNNY     69  66  90 CALM      30.06R
PALESTINE      SUNNY     67  67  98 CALM      30.08R
NACOGDOCHES    SUNNY     64  63  94 CALM      30.06R
$$

TEXAS HILL COUNTRY AND EDWARDS PLATEAU

CITY           SKY/WX    TMP DP  RH WIND       PRES   REMARKS
LLANO          SUNNY     73  73 100 CALM      30.12R
HORSESHOE BAY  FAIR      70  70 100 CALM      30.08R FOG
KERRVILLE      CLOUDY    72  70  94 CALM      30.10R
FREDERICKSBRG  MOCLDY    71  69  96 CALM      30.10R
ROCKSPRINGS    PTSUNNY   70  70 100 E5        30.13R
HONDO          CLOUDY    74  71  91 NE6       30.07R
UVALDE         MOSUNNY   73  72  97 E3        30.06R
DEL RIO        MOCLDY    76  72  87 E8        30.03R
$$

SOUTHEAST TEXAS

CITY           SKY/WX    TMP DP  RH WIND       PRES   REMARKS
COLLEGE STN    CLEAR     73  69  87 NE3       30.05R
CALDWELL       SUNNY     70  70 100 N3        30.09R
CROCKETT       SUNNY     70  70 100 NE3       30.09R FOG
BRENHAM        CLEAR     73  72  95 CALM      30.05R
HUNTSVILLE     CLEAR     68  65  90 CALM      30.05R
CONROE         SUNNY     69  68  96 CALM      30.05R
HOUSTON BUSH   MOSUNNY   74  71  91 N5        30.03R
HOUSTON HOBBY  SUNNY     76  73  91 NE6       30.02R
PERLAND        SUNNY     77  73  87 NE5       30.03R
WHARTON        SUNNY     74  73  96 NE5       30.02R
$$

THE UPPER TEXAS COAST

CITY           SKY/WX    TMP DP  RH WIND       PRES   REMARKS
ORANGE         SUNNY    N/A N/A N/A CALM      30.04R HAZE
PORT ARTHUR    SUNNY     75  71  87 NE5       30.02R
GALVESTON      MOSUNNY   80  76  87 NE8       30.01R
ANGLETON       SUNNY     75  74  96 N6        30.01R
BAY CITY       SUNNY    N/A N/A N/A NE5       30.00R
$$

TEXAS COASTAL BEND, RIO GRANDE PLAINS DEEP SOUTH TEXAS

CITY           SKY/WX    TMP DP  RH WIND       PRES   REMARKS
VICTORIA       CLEAR     77  75  93 NE9       30.00R
BEEVILLE       FAIR      76  75  99 NE7       30.00R
ROCKPORT       HVY RAIN  77  75  93 NE17G24   29.97R FOG
PORT ARANSAS   CLOUDY    77  75  93 E9        29.96R
PORT LAVACA    SUNNY     76  74  94 NE10      29.99R
CORPUS CHRISTI RAIN      77  74  90 NE10      29.96R
KINGSVILLE NAS MOCLDY    77  76  96 NE8       29.97R
COTULLA        PTCLDY    76  73  91 NE6       30.02R
LAREDO         CLOUDY    76  76 100 NE9       30.02R FOG
BROWNSVILLE    PTCLDY    77  74  90 NW5       29.94R
PORT ISABEL    CLEAR     78  75  90 NW6       29.94R FOG
HEBBRONVILLE   FOG       75  74  97 N6        30.01R VSB 1
MCALLEN        PTCLDY    78  76  93 N6        29.96R
WESLACO        PTCLDY    76  73  93 CALM      29.95R FOG
FALFURRIAS     CLOUDY   N/A N/A N/A N5        29.96R
EDINBURG       MOSUNNY   77  74  91 N5        29.96R FOG
$$



USA.gov is the U.S. government's official web portal to all federal, state and local government web resources and services.